Location: Boiro
(42.6475°N, 8.8834°W)
Time: 04:24:04
(UTC+01:00)

Vanguard 1 Rocket - Pass Details

Date: 05 December 2021
Orbit: 651 x 4225 km, 34.3° (Epoch: 26 January)

Event Time Altitude Azimuth Distance (km) Brightness Sun altitude
Exits shadow 03:43:28 40° 118° (ESE) 3,232 10.1 -55.0°
Drops below altitude 10° 03:56:16 10° 88° (E) 6,356 12.1 -52.9°
Sets 04:02:31 0° 84° (E) 7,844 12.7 -51.8°
